sat.trackr.live / text

‹ back to catalog

STARLINK-4759

NORAD 53829 · 2022-114M

PAYLOAD ACTIVE UNKNOWN

§ Identity

Operator
Country
US
Launch date
2022-09-19
Launch site
AFETR
Launch vehicle
Mass (kg)
RCS (m²)

Purposes: comms

External: N2YO · Heavens-Above · Gunter

§ Orbital elements

Epoch: 2026-09-20T22:41:19.417632Z

Period
93.79 min
Inclination
53.1610°
Eccentricity
0.0001224
Mean motion
15.35402371 rev/d
Perigee alt
458.9 km
Apogee alt
460.6 km
Semi-major
6,837.9 km
B*
2.5060e-5
RAAN
138.1397°
Arg perigee
89.3280°
Mean anomaly
270.7864°
Rev number
22,243

§ Raw data

STARLINK-47591 53829U 22114M   26263.94536363  .00000494  00000+0  25060-4 0  99982 53829  53.1610 138.1397 0001224  89.3280 270.7864 15.35402371222434

JSON: /api/v1/satellites/53829 · /tle

For live sub-satellite position, see the globe view (requires WebGL).

§ Visibility from observer

Set your observer location to see the next 7 days of passes ≥ 10°. The values pass through the URL so the page stays shareable.

No JS? Fill the form by hand. The geolocation button needs JavaScript.